Time,TemperatureF,DewpointF,PressureIn,WindDirection,WindDirectionDegrees,WindSpeedMPH,WindSpeedGustMPH,Humidity,HourlyPrecipIn,Conditions,Clouds,dailyrainin,SoftwareType,DateUTC
2013-04-01 00:02:00,29.0,21.0,29.99,SSW,198,1.0,2.0,70,-99.99,,,-99.99,,2013-04-01 08:02:00,
2013-04-01 00:11:00,29.0,21.0,29.99,SSW,198,1.0,2.0,70,-99.99,,,-99.99,,2013-04-01 08:11:00,
2013-04-01 00:22:00,29.0,21.0,29.99,South,183,1.0,2.0,71,-99.99,,,-99.99,,2013-04-01 08:22:00,
2013-04-01 00:32:00,28.0,23.0,29.99,SSW,210,1.0,3.0,79,-99.99,,,-99.99,,2013-04-01 08:32:00,
2013-04-01 00:43:00,28.0,23.0,29.99,SSW,210,1.0,3.0,79,-99.99,,,-99.99,,2013-04-01 08:43:00,
2013-04-01 00:53:00,27.0,23.0,29.99,SSW,211,3.0,5.0,81,-99.99,,,-99.99,,2013-04-01 08:53:00,
2013-04-01 01:02:00,27.0,22.0,29.99,SSW,207,3.0,4.0,81,-99.99,,,-99.99,,2013-04-01 09:02:00,
2013-04-01 01:22:00,27.0,22.0,29.98,SSW,211,3.0,5.0,82,-99.99,,,-99.99,,2013-04-01 09:22:00,
2013-04-01 01:32:00,27.0,23.0,29.98,SSW,200,2.0,4.0,84,-99.99,,,-99.99,,2013-04-01 09:32:00,
2013-04-01 01:42:00,27.0,23.0,29.98,SSW,200,2.0,4.0,84,-99.99,,,-99.99,,2013-04-01 09:42:00,
2013-04-01 01:53:00,26.0,23.0,29.98,SSW,209,3.0,4.0,86,-99.99,,,-99.99,,2013-04-01 09:53:00,
2013-04-01 02:02:00,26.0,23.0,29.98,SSW,213,3.0,5.0,87,-99.99,,,-99.99,,2013-04-01 10:02:00,
2013-04-01 02:12:00,26.0,23.0,29.98,SSW,213,3.0,5.0,87,-99.99,,,-99.99,,2013-04-01 10:12:00,
2013-04-01 02:22:00,26.0,22.0,29.98,SSW,213,3.0,4.0,87,-99.99,,,-99.99,,2013-04-01 10:22:00,
2013-04-01 02:33:00,26.0,23.0,29.97,SSW,212,2.0,4.0,87,-99.99,,,-99.99,,2013-04-01 10:33:00,
2013-04-01 02:42:00,26.0,23.0,29.97,SSW,212,2.0,4.0,87,-99.99,,,-99.99,,2013-04-01 10:42:00,
2013-04-01 02:53:00,25.0,23.0,29.97,SSW,212,3.0,4.0,89,-99.99,,,-99.99,,2013-04-01 10:53:00,
2013-04-01 03:02:00,25.0,22.0,29.97,SSW,202,2.0,4.0,89,-99.99,,,-99.99,,2013-04-01 11:02:00,
2013-04-01 03:11:00,25.0,22.0,29.97,SSW,202,2.0,4.0,89,-99.99,,,-99.99,,2013-04-01 11:11:00,
2013-04-01 03:22:00,25.0,22.0,29.97,SSW,202,2.0,4.0,89,-99.99,,,-99.99,,2013-04-01 11:22:00,
2013-04-01 03:32:00,25.0,22.0,29.97,SSW,196,2.0,3.0,89,-99.99,,,-99.99,,2013-04-01 11:32:00,
2013-04-01 03:42:00,25.0,22.0,29.97,SSW,196,2.0,3.0,89,-99.99,,,-99.99,,2013-04-01 11:42:00,
2013-04-01 03:53:00,25.0,22.0,29.96,South,182,1.0,3.0,88,-99.99,,,-99.99,,2013-04-01 11:53:00,
2013-04-01 04:02:00,25.0,22.0,29.96,SSW,194,2.0,4.0,89,-99.99,,,-99.99,,2013-04-01 12:02:00,
2013-04-01 04:11:00,25.0,22.0,29.96,SSW,194,2.0,4.0,89,-99.99,,,-99.99,,2013-04-01 12:11:00,
2013-04-01 04:22:00,25.0,22.0,29.96,SSW,202,2.0,4.0,89,-99.99,,,-99.99,,2013-04-01 12:22:00,
2013-04-01 04:32:00,25.0,22.0,29.96,SSW,198,1.0,3.0,89,-99.99,,,-99.99,,2013-04-01 12:32:00,
2013-04-01 04:42:00,25.0,22.0,29.96,SSW,198,1.0,3.0,89,-99.99,,,-99.99,,2013-04-01 12:42:00,
2013-04-01 04:52:00,25.0,22.0,29.96,South,186,0.0,2.0,91,-99.99,,,-99.99,,2013-04-01 12:52:00,
2013-04-01 05:02:00,24.0,22.0,29.96,South,188,1.0,3.0,91,-99.99,,,-99.99,,2013-04-01 13:02:00,
2013-04-01 05:11:00,24.0,22.0,29.96,South,188,1.0,3.0,91,-99.99,,,-99.99,,2013-04-01 13:11:00,
2013-04-01 05:22:00,24.0,22.0,29.95,South,176,1.0,3.0,91,-99.99,,,-99.99,,2013-04-01 13:22:00,
2013-04-01 05:32:00,25.0,23.0,29.95,SSE,153,0.0,2.0,90,-99.99,,,-99.99,,2013-04-01 13:32:00,
2013-04-01 05:42:00,25.0,23.0,29.95,SSE,153,0.0,2.0,90,-99.99,,,-99.99,,2013-04-01 13:42:00,
2013-04-01 05:52:00,24.0,21.0,29.95,SSW,196,2.0,4.0,89,-99.99,,,-99.99,,2013-04-01 13:52:00,
2013-04-01 06:02:00,24.0,22.0,29.95,South,181,1.0,3.0,89,-99.99,,,-99.99,,2013-04-01 14:02:00,
2013-04-01 06:11:00,24.0,22.0,29.95,South,181,1.0,3.0,89,-99.99,,,-99.99,,2013-04-01 14:11:00,
2013-04-01 06:22:00,24.0,22.0,29.94,SSW,199,1.0,3.0,90,-99.99,,,-99.99,,2013-04-01 14:22:00,
2013-04-01 06:32:00,24.0,22.0,29.94,SSW,211,2.0,4.0,89,-99.99,,,-99.99,,2013-04-01 14:32:00,
2013-04-01 06:42:00,24.0,22.0,29.94,SSW,211,2.0,4.0,89,-99.99,,,-99.99,,2013-04-01 14:42:00,
2013-04-01 06:52:00,24.0,22.0,29.94,SSW,206,2.0,3.0,89,-99.99,,,-99.99,,2013-04-01 14:52:00,
2013-04-01 07:02:00,24.0,22.0,29.93,South,176,0.0,2.0,90,-99.99,,,-99.99,,2013-04-01 15:02:00,
2013-04-01 07:11:00,24.0,22.0,29.93,South,176,0.0,2.0,90,-99.99,,,-99.99,,2013-04-01 15:11:00,
2013-04-01 07:22:00,25.0,22.0,29.93,South,184,1.0,2.0,90,-99.99,,,-99.99,,2013-04-01 15:22:00,
2013-04-01 07:33:00,25.0,22.0,29.93,SSW,207,1.0,2.0,90,-99.99,,,-99.99,,2013-04-01 15:33:00,
2013-04-01 07:43:00,25.0,22.0,29.93,SSW,207,1.0,2.0,90,-99.99,,,-99.99,,2013-04-01 15:43:00,
2013-04-01 07:53:00,25.0,22.0,29.93,SSW,205,1.0,2.0,91,-99.99,,,-99.99,,2013-04-01 15:53:00,
2013-04-01 08:02:00,25.0,23.0,29.92,SSW,213,0.0,2.0,90,-99.99,,,-99.99,,2013-04-01 16:02:00,
2013-04-01 08:12:00,25.0,23.0,29.92,SSW,213,0.0,2.0,90,-99.99,,,-99.99,,2013-04-01 16:12:00,
2013-04-01 08:22:00,25.0,22.0,29.92,SW,215,1.0,2.0,90,-99.99,,,-99.99,,2013-04-01 16:22:00,
2013-04-01 08:32:00,25.0,22.0,29.92,SW,215,1.0,2.0,90,-99.99,,,-99.99,,2013-04-01 16:32:00,
2013-04-01 08:42:00,25.0,22.0,29.92,SW,215,1.0,2.0,90,-99.99,,,-99.99,,2013-04-01 16:42:00,
2013-04-01 08:53:00,25.0,23.0,29.92,SW,217,1.0,2.0,90,-99.99,,,-99.99,,2013-04-01 16:53:00,
2013-04-01 09:02:00,25.0,23.0,29.92,SW,217,1.0,2.0,90,-99.99,,,-99.99,,2013-04-01 17:02:00,
2013-04-01 09:12:00,25.0,23.0,29.92,SW,229,1.0,2.0,90,-99.99,,,-99.99,,2013-04-01 17:12:00,
2013-04-01 09:22:00,26.0,23.0,29.92,WSW,239,1.0,2.0,90,-99.99,,,-99.99,,2013-04-01 17:22:00,
2013-04-01 09:32:00,26.0,23.0,29.91,West,280,0.0,2.0,89,-99.99,,,-99.99,,2013-04-01 17:32:00,
2013-04-01 09:41:00,26.0,23.0,29.91,West,280,0.0,2.0,89,-99.99,,,-99.99,,2013-04-01 17:41:00,
2013-04-01 09:52:00,27.0,24.0,29.91,North,354,1.0,3.0,88,-99.99,,,-99.99,,2013-04-01 17:52:00,
2013-04-01 10:02:00,27.0,24.0,29.91,NNE,18,3.0,5.0,88,-99.99,,,-99.99,,2013-04-01 18:02:00,
2013-04-01 10:11:00,27.0,24.0,29.91,NNE,18,3.0,5.0,88,-99.99,,,-99.99,,2013-04-01 18:11:00,
2013-04-01 10:22:00,28.0,25.0,29.91,NNE,19,4.0,6.0,88,-99.99,,,-99.99,,2013-04-01 18:22:00,
2013-04-01 10:32:00,28.0,25.0,29.91,NNE,20,5.0,8.0,86,-99.99,,,-99.99,,2013-04-01 18:32:00,
2013-04-01 10:42:00,28.0,25.0,29.91,NNE,20,5.0,8.0,86,-99.99,,,-99.99,,2013-04-01 18:42:00,
2013-04-01 10:53:00,29.0,25.0,29.91,NNE,22,5.0,10.0,84,-99.99,,,-99.99,,2013-04-01 18:53:00,
2013-04-01 11:02:00,29.0,25.0,29.91,NNE,22,5.0,10.0,84,-99.99,,,-99.99,,2013-04-01 19:02:00,
2013-04-01 11:11:00,29.0,25.0,29.91,NNE,21,6.0,10.0,84,-99.99,,,-99.99,,2013-04-01 19:11:00,
2013-04-01 11:22:00,29.0,25.0,29.91,NNE,23,7.0,10.0,84,-99.99,,,-99.99,,2013-04-01 19:22:00,
2013-04-01 11:32:00,29.0,25.0,29.90,NNE,23,7.0,11.0,83,-99.99,,,-99.99,,2013-04-01 19:32:00,
2013-04-01 11:42:00,29.0,25.0,29.90,NNE,23,7.0,11.0,83,-99.99,,,-99.99,,2013-04-01 19:42:00,
2013-04-01 11:53:00,29.0,25.0,29.90,NNE,22,7.0,10.0,83,-99.99,,,-99.99,,2013-04-01 19:53:00,
2013-04-01 12:02:00,29.0,24.0,29.90,NNE,24,7.0,10.0,81,-99.99,,,-99.99,,2013-04-01 20:02:00,
2013-04-01 12:11:00,29.0,24.0,29.90,NNE,24,7.0,10.0,81,-99.99,,,-99.99,,2013-04-01 20:11:00,
2013-04-01 12:22:00,29.0,25.0,29.90,NNE,21,7.0,10.0,83,-99.99,,,-99.99,,2013-04-01 20:22:00,
2013-04-01 12:32:00,30.0,25.0,29.90,NNE,14,6.0,9.0,81,-99.99,,,-99.99,,2013-04-01 20:32:00,
2013-04-01 12:42:00,30.0,25.0,29.90,NNE,14,6.0,9.0,81,-99.99,,,-99.99,,2013-04-01 20:42:00,
2013-04-01 12:52:00,30.0,24.0,29.90,NNE,22,6.0,9.0,79,-99.99,,,-99.99,,2013-04-01 20:52:00,
2013-04-01 13:02:00,30.0,24.0,29.90,NNE,12,6.0,8.0,80,-99.99,,,-99.99,,2013-04-01 21:02:00,
2013-04-01 13:11:00,30.0,24.0,29.90,NNE,12,6.0,8.0,80,-99.99,,,-99.99,,2013-04-01 21:11:00,
2013-04-01 13:22:00,30.0,24.0,29.90,North,10,5.0,8.0,80,-99.99,,,-99.99,,2013-04-01 21:22:00,
2013-04-01 13:32:00,30.0,24.0,29.90,North,8,5.0,8.0,80,-99.99,,,-99.99,,2013-04-01 21:32:00,
2013-04-01 13:43:00,30.0,24.0,29.90,North,8,5.0,8.0,80,-99.99,,,-99.99,,2013-04-01 21:43:00,
2013-04-01 13:53:00,30.0,24.0,29.90,North,7,6.0,9.0,79,-99.99,,,-99.99,,2013-04-01 21:53:00,
2013-04-01 14:02:00,30.0,24.0,29.90,North,10,6.0,11.0,79,-99.99,,,-99.99,,2013-04-01 22:02:00,
2013-04-01 14:12:00,30.0,24.0,29.90,North,10,6.0,11.0,79,-99.99,,,-99.99,,2013-04-01 22:12:00,
2013-04-01 14:22:00,30.0,24.0,29.90,North,9,6.0,10.0,79,-99.99,,,-99.99,,2013-04-01 22:22:00,
2013-04-01 14:32:00,30.0,24.0,29.90,North,2,6.0,11.0,77,-99.99,,,-99.99,,2013-04-01 22:32:00,
2013-04-01 14:42:00,30.0,24.0,29.90,North,2,6.0,11.0,77,-99.99,,,-99.99,,2013-04-01 22:42:00,
2013-04-01 14:52:00,30.0,24.0,29.89,North,6,7.0,12.0,77,-99.99,,,-99.99,,2013-04-01 22:52:00,
2013-04-01 15:02:00,30.0,24.0,29.89,North,7,7.0,10.0,77,-99.99,,,-99.99,,2013-04-01 23:02:00,
2013-04-01 15:11:00,30.0,24.0,29.89,North,7,7.0,10.0,77,-99.99,,,-99.99,,2013-04-01 23:11:00,
2013-04-01 15:22:00,31.0,24.0,29.89,North,351,5.0,9.0,77,-99.99,,,-99.99,,2013-04-01 23:22:00,
2013-04-01 15:32:00,31.0,24.0,29.89,NNW,344,4.0,9.0,76,-99.99,,,-99.99,,2013-04-01 23:32:00,
2013-04-01 15:42:00,31.0,24.0,29.89,NNW,344,4.0,9.0,76,-99.99,,,-99.99,,2013-04-01 23:42:00,
2013-04-01 15:53:00,30.0,24.0,29.89,North,354,5.0,9.0,76,-99.99,,,-99.99,,2013-04-01 23:53:00,
2013-04-01 16:02:00,31.0,24.0,29.89,North,10,6.0,10.0,75,-99.99,,,-99.99,,2013-04-02 00:02:00,
2013-04-01 16:11:00,31.0,24.0,29.89,North,10,6.0,10.0,75,-99.99,,,-99.99,,2013-04-02 00:11:00,
2013-04-01 16:22:00,30.0,24.0,29.89,North,3,6.0,10.0,75,-99.99,,,-99.99,,2013-04-02 00:22:00,
2013-04-01 16:32:00,31.0,23.0,29.89,North,9,6.0,10.0,73,-99.99,,,-99.99,,2013-04-02 00:32:00,
2013-04-01 16:42:00,31.0,23.0,29.89,North,9,6.0,10.0,73,-99.99,,,-99.99,,2013-04-02 00:42:00,
2013-04-01 16:53:00,31.0,23.0,29.89,NNE,16,4.0,9.0,71,-99.99,,,-99.99,,2013-04-02 00:53:00,
2013-04-01 17:01:00,31.0,22.0,29.88,NNE,22,5.0,10.0,69,-99.99,,,-99.99,,2013-04-02 01:01:00,
2013-04-01 17:11:00,31.0,22.0,29.88,NNE,22,5.0,10.0,69,-99.99,,,-99.99,,2013-04-02 01:11:00,
2013-04-01 17:22:00,31.0,22.0,29.88,NNE,18,6.0,11.0,67,-99.99,,,-99.99,,2013-04-02 01:22:00,
2013-04-01 17:32:00,31.0,22.0,29.88,North,7,7.0,13.0,69,-99.99,,,-99.99,,2013-04-02 01:32:00,
2013-04-01 17:42:00,31.0,22.0,29.88,North,7,7.0,13.0,69,-99.99,,,-99.99,,2013-04-02 01:42:00,
2013-04-01 17:52:00,31.0,22.0,29.88,NNE,18,7.0,11.0,70,-99.99,,,-99.99,,2013-04-02 01:52:00,
2013-04-01 18:02:00,31.0,22.0,29.89,NNE,23,8.0,12.0,68,-99.99,,,-99.99,,2013-04-02 02:02:00,
2013-04-01 18:11:00,31.0,22.0,29.89,NNE,23,8.0,12.0,68,-99.99,,,-99.99,,2013-04-02 02:11:00,
2013-04-01 18:22:00,31.0,23.0,29.89,NNE,19,7.0,12.0,71,-99.99,,,-99.99,,2013-04-02 02:22:00,
2013-04-01 18:32:00,31.0,23.0,29.89,NNE,22,8.0,12.0,71,-99.99,,,-99.99,,2013-04-02 02:32:00,
2013-04-01 18:42:00,31.0,23.0,29.89,NNE,22,8.0,12.0,71,-99.99,,,-99.99,,2013-04-02 02:42:00,
2013-04-01 18:52:00,30.0,24.0,29.89,NNE,21,6.0,11.0,75,-99.99,,,-99.99,,2013-04-02 02:52:00,
2013-04-01 19:01:00,30.0,23.0,29.89,NNE,17,6.0,10.0,76,-99.99,,,-99.99,,2013-04-02 03:01:00,
2013-04-01 19:11:00,30.0,23.0,29.89,NNE,17,6.0,10.0,76,-99.99,,,-99.99,,2013-04-02 03:11:00,
2013-04-01 19:22:00,30.0,23.0,29.89,North,10,5.0,9.0,74,-99.99,,,-99.99,,2013-04-02 03:22:00,
2013-04-01 19:33:00,30.0,23.0,29.89,NNE,21,5.0,9.0,74,-99.99,,,-99.99,,2013-04-02 03:33:00,
2013-04-01 19:43:00,30.0,23.0,29.89,NNE,21,5.0,9.0,74,-99.99,,,-99.99,,2013-04-02 03:43:00,
2013-04-01 19:53:00,30.0,23.0,29.89,NNE,22,6.0,9.0,74,-99.99,,,-99.99,,2013-04-02 03:53:00,
2013-04-01 20:02:00,29.0,23.0,29.89,NNE,16,5.0,8.0,75,-99.99,,,-99.99,,2013-04-02 04:02:00,
2013-04-01 20:12:00,29.0,23.0,29.89,NNE,16,5.0,8.0,75,-99.99,,,-99.99,,2013-04-02 04:12:00,
2013-04-01 20:22:00,29.0,23.0,29.89,NNE,18,5.0,7.0,76,-99.99,,,-99.99,,2013-04-02 04:22:00,
2013-04-01 20:32:00,29.0,23.0,29.90,NNE,27,3.0,5.0,75,-99.99,,,-99.99,,2013-04-02 04:32:00,
2013-04-01 20:42:00,29.0,23.0,29.90,NNE,27,3.0,5.0,75,-99.99,,,-99.99,,2013-04-02 04:42:00,
2013-04-01 20:53:00,29.0,22.0,29.90,NNE,31,3.0,7.0,75,-99.99,,,-99.99,,2013-04-02 04:53:00,
2013-04-01 21:01:00,29.0,23.0,29.90,NNE,32,3.0,7.0,77,-99.99,,,-99.99,,2013-04-02 05:01:00,
2013-04-01 21:11:00,29.0,23.0,29.90,NNE,32,3.0,7.0,77,-99.99,,,-99.99,,2013-04-02 05:11:00,
2013-04-01 21:22:00,29.0,23.0,29.90,NE,40,2.0,4.0,79,-99.99,,,-99.99,,2013-04-02 05:22:00,
2013-04-01 21:32:00,29.0,23.0,29.90,NE,37,2.0,4.0,79,-99.99,,,-99.99,,2013-04-02 05:32:00,
2013-04-01 21:42:00,29.0,23.0,29.90,NE,37,2.0,4.0,79,-99.99,,,-99.99,,2013-04-02 05:42:00,
2013-04-01 21:52:00,29.0,23.0,29.90,NE,41,2.0,4.0,79,-99.99,,,-99.99,,2013-04-02 05:52:00,
2013-04-01 22:02:00,29.0,23.0,29.90,NE,45,1.0,4.0,79,-99.99,,,-99.99,,2013-04-02 06:02:00,
2013-04-01 22:11:00,29.0,23.0,29.90,NE,45,1.0,4.0,79,-99.99,,,-99.99,,2013-04-02 06:11:00,
2013-04-01 22:22:00,29.0,23.0,29.90,ENE,70,1.0,3.0,79,-99.99,,,-99.99,,2013-04-02 06:22:00,
2013-04-01 22:31:00,29.0,23.0,29.90,East,91,1.0,2.0,78,-99.99,,,-99.99,,2013-04-02 06:31:00,
2013-04-01 22:42:00,29.0,23.0,29.90,East,91,1.0,2.0,78,-99.99,,,-99.99,,2013-04-02 06:42:00,
2013-04-01 22:52:00,29.0,23.0,29.90,East,89,1.0,2.0,78,-99.99,,,-99.99,,2013-04-02 06:52:00,
2013-04-01 23:01:00,28.0,23.0,29.91,ESE,112,1.0,2.0,79,-99.99,,,-99.99,,2013-04-02 07:01:00,
2013-04-01 23:11:00,28.0,23.0,29.91,ESE,112,1.0,2.0,79,-99.99,,,-99.99,,2013-04-02 07:11:00,
2013-04-01 23:22:00,28.0,23.0,29.91,ESE,106,1.0,2.0,80,-99.99,,,-99.99,,2013-04-02 07:22:00,
2013-04-01 23:31:00,29.0,23.0,29.91,ESE,121,1.0,2.0,80,-99.99,,,-99.99,,2013-04-02 07:31:00,
2013-04-01 23:42:00,29.0,23.0,29.91,ESE,121,1.0,2.0,80,-99.99,,,-99.99,,2013-04-02 07:42:00,
2013-04-01 23:52:00,27.0,24.0,29.91,SSW,207,1.0,2.0,84,-99.99,,,-99.99,,2013-04-02 07:52:00,